WGN618 KSJC-KRNO

Flight info

Callsign WGN618
Flight time 0h 51m
Altitude 29000
Route LOUPE1 ORRCA ORRCA1
Aircraft MD1F/H-SDE1E2E3FGHIJ2J3J4J5M1RWXY/LB1D1

Departure

Time 2026-05-03 22:09
Airport Norman Y. Mineta San Jose International Airport (KSJC)

Arrival

Time 2026-05-03 23:01
Airport Reno Tahoe International Airport (KRNO)
Time Latitude Longitude Altitude Speed Heading
2026-05-03 21:59 37.35666 -121.91641 69 ft 0 kts
2026-05-03 22:02 37.35647 -121.91644 69 ft 3 kts
2026-05-03 22:02 37.35633 -121.91646 69 ft 1 kts
2026-05-03 22:02 37.35623 -121.91648 69 ft 0 kts 19°
2026-05-03 22:03 37.35614 -121.91653 69 ft 1 kts 38°
2026-05-03 22:03 37.35609 -121.91660 70 ft 1 kts 55°
2026-05-03 22:03 37.35606 -121.91668 70 ft 0 kts 71°
2026-05-03 22:03 37.35604 -121.91676 70 ft 1 kts 87°
2026-05-03 22:04 37.35604 -121.91685 70 ft 0 kts 96°
2026-05-03 22:04 37.35604 -121.91687 70 ft 0 kts 96°
2026-05-03 22:06 37.35604 -121.91679 70 ft 2 kts 96°
2026-05-03 22:06 37.35594 -121.91649 70 ft 6 kts 118°
2026-05-03 22:06 37.35557 -121.91581 69 ft 11 kts 140°
2026-05-03 22:07 37.35469 -121.91524 70 ft 14 kts 150°
2026-05-03 22:07 37.35386 -121.91444 71 ft 10 kts 139°
2026-05-03 22:07 37.35317 -121.91431 73 ft 10 kts 207°
2026-05-03 22:07 37.35261 -121.91497 74 ft 11 kts 229°
2026-05-03 22:08 37.35204 -121.91579 75 ft 12 kts 229°
2026-05-03 22:08 37.35145 -121.91676 75 ft 14 kts 251°
2026-05-03 22:08 37.35185 -121.91801 75 ft 16 kts 313°
2026-05-03 22:08 37.35294 -121.91928 73 ft 33 kts 318°
2026-05-03 22:09 37.35744 -121.92416 67 ft 124 kts 318°
2026-05-03 22:09 37.36653 -121.93416 92 ft 193 kts 316°
2026-05-03 22:09 37.37699 -121.94594 1101 ft 185 kts 315°
2026-05-03 22:10 37.39650 -121.96703 2726 ft 182 kts 317°
2026-05-03 22:10 37.40810 -121.97360 3250 ft 191 kts 358°
2026-05-03 22:10 37.42133 -121.96890 3567 ft 210 kts 38°
2026-05-03 22:10 37.43060 -121.95341 3957 ft 227 kts 77°
2026-05-03 22:11 37.43118 -121.93316 4599 ft 234 kts 108°
2026-05-03 22:11 37.42314 -121.91473 4906 ft 237 kts 134°
2026-05-03 22:11 37.41033 -121.89893 4907 ft 246 kts 137°
2026-05-03 22:11 37.39831 -121.88357 4889 ft 244 kts 132°
2026-05-03 22:12 37.38734 -121.86700 4911 ft 244 kts 128°
2026-05-03 22:12 37.37712 -121.84950 4933 ft 245 kts 126°
2026-05-03 22:12 37.36721 -121.83111 4940 ft 245 kts 124°
2026-05-03 22:12 37.35687 -121.81192 4940 ft 244 kts 129°
2026-05-03 22:13 37.34479 -121.79420 4978 ft 251 kts 131°
2026-05-03 22:13 37.33211 -121.77598 4973 ft 262 kts 131°
2026-05-03 22:13 37.31925 -121.75751 4962 ft 266 kts 131°
2026-05-03 22:13 37.30632 -121.73954 4925 ft 266 kts 142°
2026-05-03 22:14 37.28961 -121.72995 4991 ft 258 kts 174°
2026-05-03 22:14 37.27160 -121.73309 5025 ft 260 kts 206°
2026-05-03 22:14 37.25753 -121.74784 5012 ft 263 kts 238°
2026-05-03 22:14 37.25176 -121.76913 5002 ft 266 kts 268°
2026-05-03 22:15 37.25505 -121.79035 4992 ft 268 kts 296°
2026-05-03 22:15 37.26517 -121.80872 4971 ft 273 kts 312°
2026-05-03 22:15 37.27911 -121.82489 4929 ft 276 kts 322°
2026-05-03 22:15 37.29431 -121.83933 4925 ft 276 kts 317°
2026-05-03 22:16 37.30759 -121.85575 4931 ft 276 kts 311°
2026-05-03 22:16 37.32046 -121.87352 4941 ft 277 kts 311°
2026-05-03 22:16 37.33414 -121.89204 4945 ft 277 kts 312°
2026-05-03 22:16 37.34833 -121.91076 4952 ft 277 kts 313°
2026-05-03 22:17 37.36254 -121.92892 4939 ft 277 kts 318°
2026-05-03 22:17 37.37932 -121.94316 4971 ft 279 kts 337°
2026-05-03 22:17 37.39854 -121.94920 5939 ft 278 kts 355°
2026-05-03 22:17 37.41820 -121.95094 6910 ft 286 kts 359°
2026-05-03 22:18 37.43870 -121.95170 7935 ft 294 kts 360°
2026-05-03 22:18 37.45940 -121.95259 8971 ft 300 kts 359°
2026-05-03 22:18 37.48068 -121.95389 10018 ft 306 kts 358°
2026-05-03 22:18 37.50324 -121.95567 10733 ft 326 kts 358°
2026-05-03 22:19 37.52760 -121.95784 11127 ft 356 kts 357°
2026-05-03 22:19 37.55361 -121.96024 11477 ft 386 kts 357°
2026-05-03 22:19 37.58205 -121.96265 11794 ft 415 kts
2026-05-03 22:19 37.61179 -121.96094 12587 ft 426 kts
2026-05-03 22:20 37.64137 -121.95346 13485 ft 433 kts 19°
2026-05-03 22:20 37.67078 -121.94037 14446 ft 439 kts 24°
2026-05-03 22:20 37.69967 -121.92539 15477 ft 445 kts 25°
2026-05-03 22:20 37.72812 -121.91065 16506 ft 450 kts 25°
2026-05-03 22:21 37.75796 -121.89548 17551 ft 455 kts 25°
2026-05-03 22:21 37.78857 -121.88027 18554 ft 461 kts 24°
2026-05-03 22:21 37.81914 -121.86517 19535 ft 466 kts 25°
2026-05-03 22:21 37.85020 -121.84950 20488 ft 470 kts 25°
2026-05-03 22:22 37.88121 -121.83373 21414 ft 474 kts 25°
2026-05-03 22:22 37.91282 -121.81784 22333 ft 478 kts 25°
2026-05-03 22:22 37.94452 -121.80205 23306 ft 481 kts 26°
2026-05-03 22:22 37.97656 -121.78590 24248 ft 484 kts 26°
2026-05-03 22:23 38.00862 -121.76972 25132 ft 487 kts 26°
2026-05-03 22:23 38.04162 -121.75318 26263 ft 485 kts 26°
2026-05-03 22:23 38.07488 -121.73659 27557 ft 479 kts 26°
2026-05-03 22:23 38.10799 -121.71995 28446 ft 474 kts 27°
2026-05-03 22:24 38.14120 -121.70320 28621 ft 468 kts 26°
2026-05-03 22:24 38.17394 -121.68677 28818 ft 464 kts 26°
2026-05-03 22:24 38.20674 -121.67031 28821 ft 462 kts 26°
2026-05-03 22:25 38.27402 -121.63657 28894 ft 462 kts 26°
2026-05-03 22:25 38.34200 -121.60250 28908 ft 463 kts 26°
2026-05-03 22:26 38.40951 -121.56806 28901 ft 459 kts 29°
2026-05-03 22:26 38.46957 -121.51846 28921 ft 449 kts 45°
2026-05-03 22:27 38.51981 -121.45491 28916 ft 449 kts 49°
2026-05-03 22:27 38.56898 -121.39003 28914 ft 450 kts 48°
2026-05-03 22:28 38.61918 -121.32552 28921 ft 449 kts 49°
2026-05-03 22:28 38.66940 -121.26046 28925 ft 450 kts 48°
2026-05-03 22:29 38.71920 -121.19632 28922 ft 451 kts 48°
2026-05-03 22:29 38.76924 -121.13168 28923 ft 452 kts 48°
2026-05-03 22:30 38.81782 -121.06904 28930 ft 454 kts 48°
2026-05-03 22:30 38.86620 -121.00677 28923 ft 451 kts 47°
2026-05-03 22:31 38.90944 -120.95105 28934 ft 449 kts 47°
2026-05-03 22:31 38.95454 -120.89307 28934 ft 451 kts 47°
2026-05-03 22:32 38.99904 -120.83576 28930 ft 453 kts 46°
2026-05-03 22:32 39.04355 -120.77879 28925 ft 454 kts 49°
2026-05-03 22:33 39.08524 -120.72490 28925 ft 454 kts 47°
2026-05-03 22:33 39.12854 -120.66753 28943 ft 455 kts 48°
2026-05-03 22:34 39.17507 -120.60619 28974 ft 456 kts 47°
2026-05-03 22:34 39.22489 -120.54068 28994 ft 458 kts 47°
2026-05-03 22:35 39.27630 -120.47296 29006 ft 459 kts 47°
2026-05-03 22:35 39.32821 -120.40488 29011 ft 461 kts 47°
2026-05-03 22:36 39.37994 -120.33691 29013 ft 461 kts 47°
2026-05-03 22:36 39.42681 -120.27450 28999 ft 447 kts 51°
2026-05-03 22:36 39.44637 -120.24310 28974 ft 429 kts 54°
2026-05-03 22:37 39.46639 -120.21048 28973 ft 411 kts 52°
2026-05-03 22:37 39.48694 -120.17835 28934 ft 393 kts 52°
2026-05-03 22:37 39.50606 -120.14915 28917 ft 377 kts 52°
2026-05-03 22:37 39.52385 -120.12221 28902 ft 362 kts 53°
2026-05-03 22:38 39.54066 -120.09605 29000 ft 348 kts 51°
2026-05-03 22:38 39.57507 -120.04320 29063 ft 327 kts 52°
2026-05-03 22:39 39.60530 -119.99679 29058 ft 315 kts 53°
2026-05-03 22:39 39.63557 -119.95029 29053 ft 314 kts 54°
2026-05-03 22:40 39.66663 -119.90219 28664 ft 323 kts 53°
2026-05-03 22:40 39.68243 -119.87796 27893 ft 329 kts 52°
2026-05-03 22:40 39.69832 -119.85420 27221 ft 339 kts 52°
2026-05-03 22:40 39.71457 -119.82985 26539 ft 350 kts 52°
2026-05-03 22:41 39.73088 -119.80540 25891 ft 357 kts 52°
2026-05-03 22:41 39.74760 -119.78027 25242 ft 363 kts 52°
2026-05-03 22:41 39.76408 -119.75558 24594 ft 368 kts 52°
2026-05-03 22:41 39.78095 -119.73038 23923 ft 371 kts 52°
2026-05-03 22:42 39.79804 -119.70491 23255 ft 372 kts 51°
2026-05-03 22:42 39.81502 -119.67968 22604 ft 372 kts 53°
2026-05-03 22:42 39.83223 -119.65405 21936 ft 374 kts 51°
2026-05-03 22:42 39.84972 -119.62918 21302 ft 375 kts 46°
2026-05-03 22:43 39.86913 -119.60708 20652 ft 378 kts 39°
2026-05-03 22:43 39.89079 -119.58791 19962 ft 376 kts 33°
2026-05-03 22:43 39.91412 -119.57204 19327 ft 372 kts 26°
2026-05-03 22:43 39.93804 -119.56004 18693 ft 370 kts 20°
2026-05-03 22:44 39.96292 -119.55149 18045 ft 369 kts 13°
2026-05-03 22:44 39.98801 -119.54662 17395 ft 368 kts
2026-05-03 22:44 40.01340 -119.54335 16735 ft 366 kts
2026-05-03 22:44 40.03873 -119.54176 16080 ft 363 kts
2026-05-03 22:45 40.06383 -119.54290 15464 ft 359 kts 357°
2026-05-03 22:45 40.08859 -119.54658 14827 ft 356 kts 348°
2026-05-03 22:45 40.11121 -119.55892 14225 ft 355 kts 323°
2026-05-03 22:45 40.12793 -119.58215 13656 ft 351 kts 298°
2026-05-03 22:46 40.13569 -119.61214 13135 ft 343 kts 271°
2026-05-03 22:46 40.13304 -119.64197 12838 ft 322 kts 246°
2026-05-03 22:46 40.12224 -119.66695 12258 ft 309 kts 225°
2026-05-03 22:46 40.10735 -119.68684 11567 ft 305 kts 217°
2026-05-03 22:47 40.09050 -119.70399 10888 ft 301 kts 206°
2026-05-03 22:47 40.07210 -119.71586 10267 ft 297 kts 201°
2026-05-03 22:47 40.05561 -119.73174 9659 ft 297 kts 233°
2026-05-03 22:47 40.04676 -119.75566 9064 ft 295 kts 261°
2026-05-03 22:48 40.04742 -119.78213 8422 ft 291 kts 291°
2026-05-03 22:48 40.05729 -119.80397 7979 ft 278 kts 322°
2026-05-03 22:48 40.07378 -119.81580 8020 ft 272 kts 351°
2026-05-03 22:48 40.09269 -119.81576 7989 ft 278 kts 17°
2026-05-03 22:49 40.10934 -119.80379 7850 ft 272 kts 46°
2026-05-03 22:49 40.11882 -119.78281 7860 ft 269 kts 76°
2026-05-03 22:49 40.11875 -119.75872 7871 ft 270 kts 105°
2026-05-03 22:49 40.10922 -119.73756 7875 ft 274 kts 134°
2026-05-03 22:50 40.09287 -119.72407 7880 ft 279 kts 156°
2026-05-03 22:50 40.07393 -119.71814 7910 ft 281 kts 173°
2026-05-03 22:50 40.05492 -119.72028 8743 ft 268 kts 192°
2026-05-03 22:50 40.03847 -119.72850 9855 ft 251 kts 199°
2026-05-03 22:51 40.02222 -119.73660 10501 ft 249 kts 194°
2026-05-03 22:51 40.00645 -119.74390 10347 ft 239 kts 198°
2026-05-03 22:51 39.99106 -119.75191 9893 ft 247 kts 198°
2026-05-03 22:51 39.97406 -119.75991 9965 ft 269 kts 193°
2026-05-03 22:52 39.95608 -119.76723 10083 ft 255 kts 195°
2026-05-03 22:52 39.93937 -119.77241 9533 ft 251 kts 175°
2026-05-03 22:52 39.92258 -119.76856 9137 ft 235 kts 158°
2026-05-03 22:52 39.90747 -119.76154 8965 ft 225 kts 159°
2026-05-03 22:53 39.89255 -119.75668 8925 ft 214 kts 167°
2026-05-03 22:53 39.87802 -119.75517 8853 ft 203 kts 176°
2026-05-03 22:53 39.86410 -119.75600 8774 ft 194 kts 181°
2026-05-03 22:53 39.85090 -119.75747 8710 ft 190 kts 177°
2026-05-03 22:54 39.83767 -119.75915 8640 ft 191 kts 186°
2026-05-03 22:54 39.82465 -119.76184 8536 ft 190 kts 181°
2026-05-03 22:54 39.81158 -119.76451 8487 ft 190 kts 185°
2026-05-03 22:54 39.79842 -119.76732 8407 ft 190 kts 187°
2026-05-03 22:55 39.78540 -119.77023 8336 ft 189 kts 185°
2026-05-03 22:55 39.77236 -119.77313 8276 ft 188 kts 184°
2026-05-03 22:55 39.75928 -119.77584 8218 ft 188 kts 186°
2026-05-03 22:55 39.74609 -119.77879 8152 ft 188 kts 186°
2026-05-03 22:56 39.73286 -119.78178 8083 ft 186 kts 185°
2026-05-03 22:56 39.71991 -119.78680 7878 ft 192 kts 210°
2026-05-03 22:56 39.70859 -119.79584 7591 ft 182 kts 189°
2026-05-03 22:56 39.69581 -119.79787 7264 ft 178 kts 180°
2026-05-03 22:57 39.68307 -119.79868 6933 ft 178 kts 171°
2026-05-03 22:57 39.67072 -119.79539 6542 ft 179 kts 162°
2026-05-03 22:57 39.65902 -119.78977 6335 ft 173 kts 162°
2026-05-03 22:57 39.64774 -119.78425 6202 ft 171 kts 157°
2026-05-03 22:58 39.63707 -119.77818 6064 ft 166 kts 161°
2026-05-03 22:58 39.62653 -119.77278 5840 ft 161 kts 168°
2026-05-03 22:58 39.61544 -119.77065 5586 ft 159 kts 178°
2026-05-03 22:58 39.60451 -119.76992 5566 ft 151 kts 172°
2026-05-03 22:59 39.59390 -119.76726 5609 ft 154 kts 164°
2026-05-03 22:59 39.58345 -119.76446 5625 ft 153 kts 178°
2026-05-03 22:59 39.57262 -119.76507 5598 ft 153 kts 181°
2026-05-03 22:59 39.56179 -119.76571 5578 ft 154 kts 180°
2026-05-03 23:00 39.54980 -119.76608 5380 ft 155 kts 180°
2026-05-03 23:00 39.53789 -119.76668 4966 ft 156 kts 180°
2026-05-03 23:00 39.52645 -119.76659 4851 ft 146 kts 179°
2026-05-03 23:00 39.51502 -119.76677 4509 ft 149 kts 179°
2026-05-03 23:01 39.50476 -119.76671 4418 ft 104 kts 180°
2026-05-03 23:01 39.50022 -119.76674 4417 ft 26 kts 179°
2026-05-03 23:01 39.49827 -119.76675 4417 ft 19 kts 180°
2026-05-03 23:01 39.49741 -119.76798 4418 ft 20 kts 275°
2026-05-03 23:02 39.49740 -119.76994 4418 ft 15 kts 276°
2026-05-03 23:02 39.49852 -119.77070 4419 ft 18 kts 359°
2026-05-03 23:02 39.49865 -119.77070 4419 ft 0 kts 358°
2026-05-03 23:03 39.49867 -119.77070 4419 ft 1 kts 358°
2026-05-03 23:03 39.49918 -119.77071 4419 ft 13 kts 359°
2026-05-03 23:03 39.50055 -119.77069 4419 ft 21 kts
2026-05-03 23:03 39.50215 -119.77068 4421 ft 22 kts 360°
2026-05-03 23:04 39.50381 -119.77068 4421 ft 24 kts
2026-05-03 23:04 39.50559 -119.77067 4422 ft 24 kts
2026-05-03 23:04 39.50723 -119.77067 4422 ft 17 kts 359°
2026-05-03 23:04 39.50828 -119.77138 4424 ft 17 kts 339°
2026-05-03 23:05 39.50900 -119.77181 4424 ft 10 kts 295°
2026-05-03 23:05 39.50908 -119.77274 4426 ft 9 kts 269°
2026-05-03 23:05 39.50908 -119.77362 4426 ft 9 kts 269°
2026-05-03 23:05 39.50905 -119.77447 4426 ft 8 kts 258°
2026-05-03 23:06 39.50888 -119.77501 4427 ft 4 kts 242°
2026-05-03 23:06 39.50879 -119.77525 4428 ft 0 kts 242°
2026-05-03 23:51 39.50883 -119.77516 4426 ft 3 kts 242°
2026-05-03 23:51 39.50892 -119.77493 4425 ft 1 kts 240°
2026-05-03 23:51 39.50898 -119.77481 4425 ft 1 kts 233°
2026-05-03 23:51 39.50903 -119.77473 4425 ft 2 kts 218°
2026-05-03 23:52 39.50910 -119.77467 4425 ft 1 kts 201°
2026-05-03 23:52 39.50917 -119.77464 4425 ft 1 kts 186°
2026-05-03 23:52 39.50924 -119.77464 4425 ft 1 kts 171°
2026-05-03 23:52 39.50931 -119.77466 4425 ft 0 kts 156°
2026-05-03 23:53 39.50937 -119.77470 4425 ft 0 kts 152°
2026-05-04 00:00 39.50935 -119.77467 4424 ft 0 kts 152°
2026-05-04 00:01 39.50927 -119.77459 4424 ft 2 kts 132°
2026-05-04 00:01 39.50917 -119.77428 4424 ft 5 kts 100°
2026-05-04 00:01 39.50917 -119.77366 4423 ft 8 kts 89°
2026-05-04 00:01 39.50917 -119.77284 4423 ft 10 kts 91°
2026-05-04 00:02 39.50923 -119.77183 4422 ft 12 kts 58°
2026-05-04 00:02 39.51010 -119.77151 4422 ft 13 kts
2026-05-04 00:02 39.51100 -119.77148 4423 ft 12 kts 360°
2026-05-04 00:02 39.51186 -119.77148 4425 ft 12 kts 359°
2026-05-04 00:03 39.51267 -119.77149 4427 ft 11 kts 360°
2026-05-04 00:03 39.51345 -119.77144 4428 ft 11 kts 18°
2026-05-04 00:03 39.51372 -119.77057 4426 ft 13 kts 93°